[[{"header":{"parameterUnit":"m.s-1","parameterCategory":1,"la1":30.2991,"la2":30.254,"lo1":-89.0895,"lo2":-89.0444,"dy":0.0017,"dx":0.0017,"nx":28,"ny":28,"refTime":"2023-08-30T21:00:00:Z","depth":0,"parameterNumber":2,"parameterNumberName":"U-component_of_WINDS"},"data":[0,0,0,0,0,0,0,0,0,0,0,0,0,0,0,0,0,0,0,0,0,0,0,0,0,0,0,0,0,0,0,0,0,0,0,0,0,0,0,0,0,0,0,0,0,0,0,0,0,0,0,0,0,0,0,0,0,0,0.4838,0.4838,0,0.482,0.482,0.4819,0.4776,0.4775,0.4774,0.4774,0.4756,0.4756,0.4756,0,0,0,0,0,0,0,0,0,0,0,0,0,0.4838,0.4839,0.4838,0.4838,0.4838,0.482,0.482,0.4819,0.4776,0.4775,0.4774,0.4773,0.4756,0.4756,0.4756,0,0,0,0,0,0,0,0,0,0,0,0,0,0.4831,0.4839,0.4838,0.4814,0.4812,0.482,0.482,0.4819,0.4777,0.4775,0.4774,0.4773,0.4755,0.4756,0.4757,0.4787,0,0,0.4758,0.4758,0,0,0,0,0,0,0,0,0.4832,0.4831,0.4818,0.4816,0.4813,0.4799,0.4813,0.4808,0.4777,0.479,0.4774,0.4772,0.4771,0.477,0.477,0.4786,0.4785,0.4758,0.4759,0.4759,0.4759,0,0,0,0,0,0,0,0.4832,0.4832,0.4831,0.4818,0.4815,0.4805,0.4802,0.4812,0.4788,0.4789,0.4786,0.4784,0.477,0.477,0.4769,0.4785,0.4758,0.4759,0.4759,0.4759,0.4826,0.4828,0,0,0,0,0,0,0.4836,0.4832,0.4832,0.483,0.4819,0.4806,0.4803,0.4805,0.4788,0.4784,0.4785,0.4782,0.4769,0.4769,0.4768,0.4804,0.4759,0.4759,0.476,0.4825,0.4827,0.4828,0,0,0,0,0,0,0.4836,0.4836,0.4832,0.4831,0.4829,0.4807,0.481,0.4805,0.4805,0.4785,0.4781,0.4789,0.4768,0.4768,0.4783,0.4803,0.4759,0.476,0.4823,0.4825,0.4827,0.4875,0,0,0,0,0,0,0.4836,0.4836,0.4847,0.4831,0.483,0.4847,0.4811,0.4806,0.4806,0.4802,0.4788,0.4785,0.4767,0.4782,0.4783,0.4803,0.476,0.4821,0.4824,0.4827,0.4871,0.4878,0.4884,0,0,0,0,0,0.4836,0.4861,0.4848,0.4848,0.4842,0.4848,0.4847,0.4826,0.4808,0.4819,0.4806,0.4785,0.48,0.4784,0.4785,0.4805,0.482,0.4823,0.4827,0.4868,0.4877,0.4884,0,0,0,0,0,0,0.488,0.4859,0.4844,0.4864,0.4858,0.4841,0.4854,0.4835,0.4835,0.4831,0.4805,0.4803,0.4822,0.4814,0.4797,0.4834,0.4807,0.481,0.4838,0.4846,0.4852,0.4854,0.4761,0,0,0,0,0,0.4892,0.4898,0.4879,0.4899,0.4896,0.4876,0.4877,0.4862,0.4855,0.4852,0.4841,0.4835,0.4839,0.4842,0.4844,0.487,0.4867,0.4884,0.489,0.4896,0.49,0.4914,0.4922,0.4839,0.4839,0.4839,0,0,0.4918,0.4906,0.4911,0.4907,0.4901,0.4908,0.4874,0.4883,0.4888,0.4854,0.4868,0.4859,0.4851,0.4872,0.4881,0.4867,0.4922,0.49,0.4904,0.4905,0.4918,0.4926,0.4933,0.4841,0.4841,0.4841,0,0,0.4967,0.4959,0.4975,0.4969,0.496,0.4946,0.495,0.4936,0.4929,0.4942,0.4917,0.4923,0.493,0.4926,0.4924,0.4974,0.4955,0.4975,0.5009,0.5024,0.503,0.5036,0.5055,0.5062,0.4979,0.4979,0.4979,0,0.5,0.5009,0.4986,0.4997,0.4996,0.4965,0.4982,0.4978,0.497,0.4971,0.4955,0.4963,0.4955,0.4976,0.4988,0.4987,0.4992,0.4977,0.5031,0.5037,0.5042,0.506,0.5067,0.4981,0.4981,0.4981,0.4981,0,0.505,0.5058,0.5072,0.5065,0.5066,0.508,0.506,0.5063,0.5048,0.5036,0.5051,0.5041,0.5041,0.5045,0.5029,0.5064,0.5055,0.5036,0.5008,0.5053,0.5069,0.5076,0.4985,0.4984,0.4983,0.4983,0,0,0.5128,0.5108,0.5114,0.5111,0.5099,0.5105,0.5118,0.5118,0.5122,0.5118,0.5129,0.5136,0.5118,0.5117,0.5101,0.5113,0.5155,0.5092,0.5092,0.5106,0.5194,0.521,0.5218,0.5142,0.5143,0.5144,0.5195,0,0.5176,0.5196,0.5176,0.5201,0.5208,0.5179,0.519,0.5185,0.5174,0.5179,0.5168,0.5174,0.5149,0.5148,0.5159,0.5148,0.5173,0.5143,0.5153,0.5154,0.5158,0.5227,0.5243,0.5292,0.5201,0.5202,0.5203,0,0.5234,0.5233,0.5259,0.5247,0.5249,0.5259,0.5259,0.5263,0.5257,0.5248,0.5248,0.5228,0.5241,0.5213,0.5231,0.5212,0.5215,0.521,0.5211,0.5213,0.5182,0.5231,0.5307,0.5315,0.5213,0.5212,0.5211,0,0.529,0.5295,0.5311,0.531,0.5295,0.5304,0.5298,0.529,0.5292,0.5291,0.5292,0.5293,0.5294,0.5296,0.5278,0.5259,0.5299,0.5269,0.5293,0.5294,0.5304,0.5304,0.5383,0.5303,0.5303,0.5303,0.5303,0,0.5347,0.5364,0.5337,0.5347,0.5366,0.5343,0.5363,0.5354,0.5347,0.5356,0.533,0.5339,0.5314,0.5321,0.5307,0.5325,0.5325,0.532,0.5316,0.5323,0.5324,0.5326,0.5322,0.5305,0.5305,0.5304,0.5304,0,0.5413,0.5395,0.5411,0.5396,0.5393,0.5408,0.5395,0.5405,0.5392,0.5404,0.5406,0.5387,0.5394,0.5375,0.5379,0.537,0.5397,0.5387,0.5399,0.5397,0.5423,0.5421,0.5507,0.5517,0.543,0.543,0.5431,0,0.5451,0.5464,0.545,0.5454,0.545,0.5457,0.5458,0.5436,0.5439,0.5433,0.5444,0.5448,0.5451,0.5463,0.545,0.5454,0.5445,0.5474,0.5445,0.5452,0.5447,0.5447,0.5449,0.5481,0.5482,0.5483,0.5483,0,0.5521,0.5511,0.5515,0.5516,0.5519,0.5518,0.5516,0.5521,0.5497,0.5502,0.5509,0.5511,0.5515,0.552,0.5521,0.5516,0.5497,0.5493,0.5499,0.5507,0.5514,0.5512,0.5417,0.5491,0.549,0.549,0.5489,0.5489,0.5575,0.5586,0.5578,0.5583,0.5579,0.5578,0.5587,0.5576,0.5581,0.5583,0.5569,0.5579,0.5573,0.5572,0.5569,0.5577,0.5563,0.5572,0.5574,0.5577,0.5582,0.5512,0.5576,0.5576,0.5576,0.5576,0.5576,0,0.5645,0.5639,0.5644,0.5642,0.5647,0.5627,0.5624,0.5629,0.5638,0.5634,0.5637,0.5646,0.5651,0.5639,0.5642,0.5651,0.5643,0.5653,0.5653,0.5653,0.5593,0.5588,0.566,0.566,0.566,0.566,0.566,0.566,0.5683,0.57,0.569,0.5706,0.57,0.5709,0.5709,0.5709,0.5705,0.5716,0.572,0.5712,0.5705,0.5708,0.5713,0.5709,0.5712,0.5726,0.572,0.5665,0.5657,0.5649,0.5644,0.5727,0.5727,0.5779,0.5779,0.578]},{"header":{"parameterUnit":"m.s-1","parameterCategory":1,"la1":30.2991,"la2":30.254,"lo1":-89.0895,"lo2":-89.0444,"dy":0.0017,"dx":0.0017,"nx":28,"ny":28,"refTime":"2023-08-30T21:00:00:Z","depth":0,"parameterNumber":3,"parameterNumberName":"V-component_of_WINDS"},"data":[0,0,0,0,0,0,0,0,0,0,0,0,0,0,0,0,0,0,0,0,0,0,0,0,0,0,0,0,0,0,0,0,0,0,0,0,0,0,0,0,0,0,0,0,0,0,0,0,0,0,0,0,0,0,0,0,0,0,-3.3816,-3.3816,0,-3.387,-3.387,-3.3871,-3.3926,-3.3926,-3.3927,-3.3928,-3.3978,-3.3979,-3.398,0,0,0,0,0,0,0,0,0,0,0,0,0,-3.3758,-3.3759,-3.3816,-3.3817,-3.3817,-3.387,-3.387,-3.3871,-3.3926,-3.3926,-3.3927,-3.3928,-3.3978,-3.3979,-3.398,0,0,0,0,0,0,0,0,0,0,0,0,0,-3.3795,-3.3759,-3.3816,-3.3851,-3.3855,-3.387,-3.387,-3.3871,-3.3925,-3.3926,-3.3928,-3.3929,-3.3978,-3.3979,-3.398,-3.3963,0,0,-3.3983,-3.3983,0,0,0,0,0,0,0,0,-3.3792,-3.3797,-3.3845,-3.3848,-3.3853,-3.3892,-3.3869,-3.3902,-3.3925,-3.3898,-3.3928,-3.3929,-3.3948,-3.3952,-3.3959,-3.3965,-3.3968,-3.3983,-3.3983,-3.3984,-3.3984,0,0,0,0,0,0,0,-3.379,-3.3795,-3.3837,-3.3846,-3.385,-3.3863,-3.387,-3.3875,-3.3916,-3.3901,-3.3905,-3.3911,-3.3951,-3.3958,-3.3961,-3.3968,-3.3983,-3.3984,-3.3984,-3.3985,-3.3967,-3.3966,0,0,0,0,0,0,-3.3782,-3.3792,-3.3835,-3.3839,-3.3825,-3.3863,-3.3871,-3.3878,-3.3916,-3.3923,-3.391,-3.3913,-3.3956,-3.396,-3.3963,-3.3949,-3.3984,-3.3985,-3.3985,-3.3968,-3.3967,-3.3966,0,0,0,0,0,0,-3.3781,-3.3786,-3.3833,-3.3817,-3.3824,-3.3863,-3.3871,-3.3879,-3.3887,-3.3923,-3.393,-3.391,-3.3957,-3.3962,-3.3964,-3.3951,-3.3985,-3.3986,-3.397,-3.3968,-3.3966,-3.3918,0,0,0,0,0,0,-3.3779,-3.3785,-3.3779,-3.3816,-3.3824,-3.3833,-3.3871,-3.3879,-3.3889,-3.3893,-3.3925,-3.3932,-3.3958,-3.3962,-3.3965,-3.3953,-3.3987,-3.3971,-3.3969,-3.3967,-3.3921,-3.3915,-3.391,0,0,0,0,0,-3.3777,-3.3761,-3.3779,-3.3783,-3.3818,-3.3833,-3.3837,-3.3869,-3.3887,-3.3882,-3.3906,-3.3931,-3.3952,-3.3962,-3.3965,-3.3954,-3.3972,-3.3969,-3.3967,-3.3923,-3.3916,-3.391,0,0,0,0,0,0,-3.3719,-3.3767,-3.3786,-3.3783,-3.3804,-3.3842,-3.3836,-3.386,-3.3875,-3.3879,-3.3917,-3.3924,-3.3922,-3.3938,-3.3948,-3.3941,-3.3966,-3.3964,-3.3931,-3.3924,-3.3919,-3.3915,-3.3988,0,0,0,0,0,-3.3707,-3.3715,-3.3756,-3.3749,-3.3759,-3.3795,-3.3803,-3.3826,-3.3849,-3.3857,-3.3881,-3.3901,-3.3913,-3.3919,-3.3932,-3.3924,-3.3932,-3.3917,-3.3912,-3.3907,-3.3905,-3.3905,-3.39,-3.3958,-3.3958,-3.3958,0,0,-3.3679,-3.3707,-3.3709,-3.3738,-3.3757,-3.3765,-3.3802,-3.3808,-3.3815,-3.3858,-3.3863,-3.3881,-3.3906,-3.3904,-3.3904,-3.3917,-3.3891,-3.3904,-3.39,-3.3901,-3.3902,-3.3897,-3.3892,-3.3957,-3.3957,-3.3957,0,0,-3.3635,-3.3656,-3.3654,-3.3673,-3.3703,-3.3728,-3.3727,-3.3763,-3.3778,-3.3784,-3.3817,-3.3825,-3.3843,-3.3861,-3.3872,-3.3838,-3.3862,-3.3841,-3.3812,-3.3811,-3.3807,-3.3803,-3.3793,-3.3788,-3.3838,-3.3838,-3.3838,0,-3.3597,-3.3612,-3.3649,-3.3655,-3.3667,-3.3709,-3.3708,-3.3724,-3.3755,-3.3763,-3.3777,-3.3804,-3.3823,-3.3827,-3.382,-3.3826,-3.3828,-3.3837,-3.3804,-3.3801,-3.3798,-3.3789,-3.3785,-3.3836,-3.3836,-3.3836,-3.3837,0,-3.3565,-3.3575,-3.357,-3.3602,-3.3614,-3.3616,-3.3653,-3.3661,-3.3684,-3.3708,-3.3714,-3.374,-3.376,-3.3762,-3.3783,-3.377,-3.3778,-3.3798,-3.3823,-3.3789,-3.3781,-3.3778,-3.3832,-3.3833,-3.3834,-3.3834,0,0,-3.3484,-3.354,-3.3537,-3.3554,-3.3591,-3.3599,-3.3604,-3.3626,-3.3632,-3.3653,-3.3658,-3.3675,-3.3695,-3.3708,-3.3731,-3.3731,-3.3706,-3.3752,-3.3753,-3.3744,-3.3695,-3.3681,-3.3676,-3.3722,-3.3721,-3.3721,-3.3694,0,-3.3447,-3.346,-3.3495,-3.3496,-3.3507,-3.3549,-3.3553,-3.3576,-3.3599,-3.3611,-3.3636,-3.3648,-3.3673,-3.3681,-3.3683,-3.3708,-3.3696,-3.3711,-3.3728,-3.3728,-3.3721,-3.3672,-3.3656,-3.3629,-3.3691,-3.369,-3.369,0,-3.3405,-3.3427,-3.343,-3.347,-3.3476,-3.3479,-3.3504,-3.3515,-3.3543,-3.356,-3.3576,-3.3604,-3.3611,-3.3635,-3.3647,-3.3656,-3.3665,-3.3679,-3.3678,-3.3682,-3.3707,-3.3675,-3.3621,-3.3617,-3.3685,-3.3685,-3.3686,0,-3.3348,-3.3377,-3.3384,-3.3397,-3.3443,-3.3445,-3.3464,-3.3494,-3.3506,-3.3527,-3.3535,-3.3556,-3.3567,-3.3583,-3.3616,-3.3629,-3.3624,-3.365,-3.3639,-3.3638,-3.3636,-3.3636,-3.3584,-3.364,-3.364,-3.364,-3.364,0,-3.3304,-3.3304,-3.336,-3.3364,-3.3367,-3.3408,-3.3409,-3.3432,-3.3459,-3.3468,-3.3504,-3.3512,-3.3555,-3.3568,-3.3593,-3.3601,-3.3605,-3.3619,-3.3626,-3.3617,-3.3615,-3.3624,-3.3627,-3.3639,-3.3639,-3.364,-3.364,0,-3.324,-3.3277,-3.3288,-3.3333,-3.3344,-3.3344,-3.3382,-3.3388,-3.3415,-3.3427,-3.3432,-3.3472,-3.349,-3.3525,-3.3551,-3.3568,-3.357,-3.3581,-3.3561,-3.3566,-3.3554,-3.3555,-3.3507,-3.3503,-3.356,-3.3559,-3.3558,0,-3.321,-3.3212,-3.3258,-3.3269,-3.3288,-3.3303,-3.3317,-3.3357,-3.337,-3.3404,-3.3406,-3.3427,-3.3446,-3.3472,-3.3504,-3.3525,-3.3538,-3.3519,-3.3541,-3.3532,-3.354,-3.354,-3.3541,-3.3514,-3.3513,-3.3513,-3.3512,0,-3.3153,-3.3172,-3.3191,-3.3218,-3.3234,-3.3256,-3.328,-3.3286,-3.3332,-3.3344,-3.3364,-3.3379,-3.3409,-3.3429,-3.3456,-3.3475,-3.3501,-3.3506,-3.3505,-3.3495,-3.3484,-3.3492,-3.355,-3.3506,-3.3507,-3.3507,-3.3508,-3.3508,-3.3106,-3.3112,-3.3147,-3.3167,-3.3191,-3.3213,-3.3222,-3.3251,-3.3269,-3.3298,-3.332,-3.3339,-3.3369,-3.3408,-3.3426,-3.3441,-3.3453,-3.3451,-3.3451,-3.345,-3.3447,-3.3482,-3.3445,-3.3446,-3.3446,-3.3446,-3.3446,0,-3.3053,-3.3079,-3.3098,-3.3132,-3.3149,-3.3175,-3.3204,-3.3216,-3.3233,-3.326,-3.3279,-3.3303,-3.3324,-3.3359,-3.3383,-3.3389,-3.3402,-3.3394,-3.3394,-3.3399,-3.3434,-3.3433,-3.3383,-3.3383,-3.3383,-3.3383,-3.3383,-3.3383,-3.3027,-3.3039,-3.3063,-3.3087,-3.3112,-3.3133,-3.3147,-3.3169,-3.3191,-3.3217,-3.3236,-3.326,-3.329,-3.3318,-3.3339,-3.3348,-3.3356,-3.3345,-3.3358,-3.339,-3.3396,-3.3401,-3.3401,-3.3346,-3.3346,-3.3322,-3.3322,-3.3322]}]]